Regional Weather Roundup
Issued by NWS

Home | Current Version | Previous Version | Text Only | Print | Product List | Glossary Off
Versions: 1 2 3 4 5 6 7 8 9 10 11 12 13 14 15 16 17 18 19 20 21 22 23 24 25 26 27

000
ASUS45 KSLC 280110
RWRUT

UTAH REGIONAL WEATHER ROUNDUP
NATIONAL WEATHER SERVICE SALT LAKE CITY UT
700 PM MDT MON MAR 27 2017

UTZ001>011-023>025-280200-

NORTHERN UTAH

CITY           SKY/WX    TMP DP  RH WIND       PRES   REMARKS
BRIGHAM CITY     N/A     47  36  65 NW9       29.92R
HILL AFB       CLOUDY    43  38  83 NW12      29.89R
LOGAN          CLOUDY    44  40  85 N6        29.92R
OGDEN          CLOUDY    44  37  76 N9        29.89R
SALT LAKE CITY CLOUDY    45  41  86 N5        29.90R
TOOELE VALLEY  CLOUDY    43  41  93 N16       29.91R
WENDOVER       CLOUDY    50  26  39 N20G30    29.96R
HEBER CITY     MIX PCPN  36  34  93 CALM      29.86R
WEST JORDAN    CLOUDY    45  45 100 N9G16     29.90R

$$

UTZ011>015-024>027-280200-

CENTRAL/NORTHEAST UTAH

CITY           SKY/WX    TMP DP  RH WIND       PRES   REMARKS
PROVO AIRPORT  LGT RAIN  41  39  93 SE7       29.89R
MOAB/CANYONLAN CLOUDY    53  37  54 NW31G43   29.71R
DELTA          CLOUDY    37  36  93 SE8       29.91R WCI  31
PRICE          CLOUDY    38  37  97 SE3       29.83R
RICHFIELD      CLOUDY    39  39 100 CALM      29.90R FOG
ROOSEVELT      CLOUDY    45  37  76 N3        29.84R
VERNAL         CLOUDY    44  38  79 N3        29.80F

$$

UTZ013>016-019>022-027-280200-

SOUTHERN UTAH

CITY           SKY/WX    TMP DP  RH WIND       PRES   REMARKS
BRYCE CANYON   FLURRIES  35  28  75 NW14      29.85R WCI  26
CEDAR CITY     LGT SNOW  32  31  96 E3        29.91S FOG
MILFORD        LGT RAIN  34  32  92 NW5       29.91S WCI  30
ST GEORGE      CLOUDY    59  35  40 E7        29.82S
HANKSVILLE     CLOUDY    54  34  47 W9        29.77R
KANAB          CLOUDY    48  34  57 W10G18    29.87R
BLANDING       MOCLDY    48  35  60 E10       29.85F

$$

REGIONAL REPORTS     COLORADO/ARIZONA

CITY           SKY/WX    TMP DP  RH WIND       PRES   REMARKS
CRAIG, CO      CLOUDY    45  35  68 NE5       29.84R
GRAND JUNCTION PTCLDY    59  28  30 SW3       29.71F
RIFLE, CO      CLOUDY    55  30  38 S22G29    29.76R
MONTROSE, CO   CLOUDY    53  33  46 N13G18    29.79R
CORTEZ, CO     CLOUDY    53  32  44 S14G22    29.80S
COLORADO CITY    N/A     50  34  53 W17       29.87R
PAGE, AZ       PTCLDY    56  34  43 W20G31    29.75R
GRAND CANYON   MOCLDY    46  30  53 W16G31    29.83R
KINGMAN, AZ    CLOUDY    62  21  20 NW12G23   29.82R
FLAGSTAFF, AZ  TSTM      39  35  86 SW10G22   29.84  WCI  32

$$

REGIONAL REPORTS    NEVADA/IDAHO/WYOMING

CITY           SKY/WX    TMP DP  RH WIND       PRES   REMARKS
LAS VEGAS, NV  MOSUNNY   70  11  10 NW20G26   29.79S
ELY, NY        LGT SNOW  35  33  92 N7        29.98R WCI  29
ELKO, NV       MOSUNNY   45  24  43 N18G26    30.06R
POCATELLO, ID  CLOUDY    49  35  58 SW20      29.94R
BURLEY, ID     PTCLDY    48  25  40 W18G32    29.97R
FORT BRIDGER,  SNOW      34  34 100 N10       29.90R VSB<1/4 WCI  26
EVANSTON, WY   SNOW      32  30  92 N16       29.87R VSB 1/4 WCI  21
ROCK SPRINGS,  LGT RAIN  38  34  85 N10       29.84S WCI  31
KEMMERER, WY   SNOW      32  32 100 NW12      29.89R VSB 1/2 WCI  23

$$




USA.gov is the U.S. government's official web portal to all federal, state and local government web resources and services.